Location: Unspecified
(0.0000°N, 0.0000°E)
Time: 19:37:07
(UTC+00:00)

Vanguard 1 - Pass Details

Date: 24 April 2026
Orbit: 654 x 3817 km, 34.2° (Epoch: 18 May)

Event Time Altitude Azimuth Distance (km) Brightness Sun altitude
Rises 20:07:28 0° 265° (W) 5,585 14.9 -31.4°
Reaches altitude 10° 20:11:04 10° 273° (W) 4,976 14.5 -32.3°
Maximum altitude 20:25:00 37° 335° (NNW) 4,359 13.5 -35.6°
Drops below altitude 10° 20:44:58 10° 35° (NE) 6,908 14.2 -40.4°
Sets 20:51:27 0° 44° (NE) 7,903 14.5 -41.9°
